When you browse on this site, cookies collect data to enhance your experience and personalize the content and advertising you see.
Visit our Privacy Policy to learn more. By continuing to use the site, you agree to this use of cookies and data.
  • In Slovakia
  • List of Countries
  • For 7 days
  • Water Temperature
  • Weather Map
  • Weather Widgets
  • user-avatar
    Login

    Hourly Weather Vatchela

    Today, 31 March, Tuesday

    Time Temperature Precipitation Wind Pressure Humidity
    00:00 -7°C° 0 mm 1 mps 757 mmHg 84%
    01:00 -7°C° 0 mm 1 mps 757 mmHg 85%
    02:00 -7°C° 0 mm 1 mps 757 mmHg 86%
    03:00 -8°C° 0 mm 1 mps 757 mmHg 86%
    04:00 -8°C° 0 mm 1 mps 757 mmHg 87%
    05:00 -8°C° 0 mm 1 mps 756 mmHg 87%
    06:00 -7°C° 0 mm 1 mps 756 mmHg 82%
    07:00 -7°C° 0 mm 2 mps 756 mmHg 77%
    08:00 -5°C° 0 mm 2 mps 756 mmHg 73%
    09:00 -5°C° 0 mm 2 mps 755 mmHg 65%
    10:00 -5°C° 0 mm 3 mps 755 mmHg 57%
    11:00 -4°C° 0 mm 3 mps 754 mmHg 49%
    12:00 -2°C° 0 mm 3 mps 753 mmHg 49%
    13:00 -3°C° 0 mm 4 mps 752 mmHg 49%
    14:00 -3°C° 0 mm 4 mps 752 mmHg 48%
    15:00 -3°C° 0 mm 4 mps 750 mmHg 50%
    16:00 -4°C° 0 mm 4 mps 749 mmHg 51%
    17:00 -4°C° 0 mm 4 mps 748 mmHg 52%
    18:00 -5°C° 0 mm 4 mps 747 mmHg 60%
    19:00 -5°C° 0 mm 4 mps 746 mmHg 68%
    20:00 -6°C° 0 mm 5 mps 745 mmHg 76%
    21:00 -6°C° 0.2 mm 5 mps 743 mmHg 81%
    22:00 -6°C° 0.2 mm 5 mps 742 mmHg 86%
    23:00 -6°C° 0.2 mm 5 mps 741 mmHg 91%

    Tomorrow, 1 April, Wednesday

    Time Temperature Precipitation Wind Pressure Humidity
    00:00 -6°C° 0.4 mm 5 mps 740 mmHg 91%
    01:00 -5°C° 0.4 mm 5 mps 739 mmHg 92%
    02:00 -5°C° 0.4 mm 5 mps 738 mmHg 93%
    03:00 -5°C° 0.3 mm 5 mps 737 mmHg 93%
    04:00 -4°C° 0.3 mm 4 mps 736 mmHg 93%
    05:00 -4°C° 0.3 mm 4 mps 736 mmHg 93%
    06:00 -3°C° 0.2 mm 4 mps 735 mmHg 92%
    07:00 -2°C° 0.2 mm 4 mps 735 mmHg 91%
    08:00 -1°C° 0.2 mm 3 mps 735 mmHg 90%
    09:00 0°C° 0.2 mm 3 mps 734 mmHg 84%
    10:00 0°C° 0.2 mm 4 mps 734 mmHg 78%
    11:00 0°C° 0.2 mm 4 mps 733 mmHg 72%
    12:00 0°C° 0.1 mm 4 mps 733 mmHg 74%
    13:00 0°C° 0.1 mm 4 mps 733 mmHg 75%
    14:00 0°C° 0.1 mm 4 mps 733 mmHg 77%
    15:00 0°C° 0.1 mm 4 mps 733 mmHg 82%
    16:00 0°C° 0.1 mm 3 mps 732 mmHg 87%
    17:00 0°C° 0.1 mm 3 mps 732 mmHg 92%
    18:00 -1°C° 0.1 mm 3 mps 732 mmHg 92%
    19:00 -1°C° 0.1 mm 3 mps 732 mmHg 92%
    20:00 -1°C° 0.1 mm 3 mps 732 mmHg 92%
    21:00 -2°C° 0 mm 3 mps 732 mmHg 92%
    22:00 -2°C° 0 mm 3 mps 732 mmHg 91%
    23:00 -4°C° 0 mm 4 mps 732 mmHg 90%

    Day after tomorrow, 2 April, Thursday

    Time Temperature Precipitation Wind Pressure Humidity
    00:00 -4°C° 0 mm 4 mps 733 mmHg 89%
    01:00 -4°C° 0 mm 4 mps 733 mmHg 88%
    02:00 -4°C° 0 mm 4 mps 733 mmHg 87%
    03:00 -5°C° 0 mm 4 mps 734 mmHg 86%
    04:00 -5°C° 0 mm 4 mps 734 mmHg 85%
    05:00 -7°C° 0 mm 4 mps 734 mmHg 84%
    06:00 -7°C° 0 mm 4 mps 734 mmHg 82%
    07:00 -5°C° 0 mm 4 mps 735 mmHg 80%
    08:00 -5°C° 0 mm 4 mps 735 mmHg 77%
    09:00 -4°C° 0 mm 3 mps 735 mmHg 74%
    10:00 -2°C° 0 mm 3 mps 735 mmHg 70%
    11:00 -1°C° 0 mm 3 mps 735 mmHg 67%
    12:00 -1°C° 0 mm 3 mps 734 mmHg 72%
    13:00 -2°C° 0 mm 4 mps 734 mmHg 77%
    14:00 -2°C° 0 mm 4 mps 734 mmHg 83%
    15:00 -1°C° 0.2 mm 4 mps 733 mmHg 87%
    16:00 -1°C° 0.2 mm 5 mps 733 mmHg 91%
    17:00 -1°C° 0.2 mm 5 mps 732 mmHg 95%
    18:00 -1°C° 0.2 mm 5 mps 731 mmHg 95%
    19:00 -1°C° 0.2 mm 5 mps 731 mmHg 94%
    20:00 -1°C° 0.2 mm 5 mps 730 mmHg 94%
    21:00 -1°C° 0.1 mm 5 mps 730 mmHg 94%
    22:00 -1°C° 0.1 mm 5 mps 729 mmHg 94%
    23:00 -1°C° 0.1 mm 5 mps 728 mmHg 94%

    3 April, Friday

    Time Temperature Precipitation Wind Pressure Humidity
    00:00 -1°C° 0.1 mm 6 mps 728 mmHg 93%
    01:00 -1°C° 0.1 mm 6 mps 727 mmHg 91%
    02:00 -1°C° 0.1 mm 6 mps 726 mmHg 90%
    03:00 -1°C° 0.6 mm 7 mps 726 mmHg 92%
    04:00 -2°C° 0.6 mm 7 mps 725 mmHg 94%
    05:00 -2°C° 0.6 mm 8 mps 724 mmHg 95%
    06:00 -2°C° 0.8 mm 7 mps 724 mmHg 92%
    07:00 -2°C° 0.8 mm 7 mps 725 mmHg 88%
    08:00 -2°C° 0.8 mm 7 mps 725 mmHg 85%
    09:00 -2°C° 0.2 mm 7 mps 725 mmHg 81%
    10:00 -1°C° 0.2 mm 6 mps 725 mmHg 78%
    11:00 -1°C° 0.2 mm 6 mps 725 mmHg 74%
    12:00 -1°C° 0.3 mm 7 mps 725 mmHg 76%
    13:00 -1°C° 0.3 mm 7 mps 726 mmHg 77%
    14:00 -1°C° 0.3 mm 7 mps 726 mmHg 78%
    15:00 -1°C° 0.4 mm 6 mps 726 mmHg 82%
    16:00 -2°C° 0.4 mm 6 mps 726 mmHg 87%
    17:00 -1°C° 0.4 mm 5 mps 726 mmHg 91%
    18:00 -1°C° 0.1 mm 5 mps 727 mmHg 89%
    19:00 -2°C° 0.1 mm 5 mps 728 mmHg 87%
    20:00 -2°C° 0.1 mm 5 mps 729 mmHg 85%
    21:00 -4°C° 0 mm 5 mps 730 mmHg 83%
    22:00 -4°C° 0 mm 5 mps 731 mmHg 81%
    23:00 -5°C° 0 mm 5 mps 732 mmHg 79%

    4 April, Saturday

    Time Temperature Precipitation Wind Pressure Humidity
    00:00 -5°C° 0 mm 5 mps 733 mmHg 78%
    01:00 -6°C° 0 mm 5 mps 734 mmHg 78%
    02:00 -5°C° 0 mm 4 mps 734 mmHg 78%
    03:00 -5°C° 0 mm 4 mps 735 mmHg 78%
    04:00 -5°C° 0 mm 4 mps 735 mmHg 79%
    05:00 -5°C° 0 mm 4 mps 736 mmHg 80%
    06:00 -6°C° 0 mm 5 mps 736 mmHg 77%
    07:00 -5°C° 0 mm 5 mps 737 mmHg 74%
    08:00 -4°C° 0 mm 5 mps 737 mmHg 71%
    09:00 -4°C° 0.2 mm 6 mps 737 mmHg 68%
    10:00 -3°C° 0.2 mm 6 mps 738 mmHg 64%
    11:00 -3°C° 0.2 mm 6 mps 738 mmHg 61%
    12:00 -2°C° 0.1 mm 6 mps 739 mmHg 61%
    13:00 -2°C° 0.1 mm 6 mps 739 mmHg 60%
    14:00 -2°C° 0.1 mm 6 mps 740 mmHg 60%
    15:00 -1°C° 0.1 mm 5 mps 741 mmHg 60%
    16:00 -2°C° 0.1 mm 5 mps 741 mmHg 61%
    17:00 -2°C° 0.1 mm 4 mps 742 mmHg 61%
    18:00 -2°C° 0 mm 4 mps 743 mmHg 64%
    19:00 -3°C° 0 mm 4 mps 744 mmHg 66%
    20:00 -4°C° 0 mm 3 mps 744 mmHg 68%
    21:00 -4°C° 0 mm 3 mps 745 mmHg 69%
    22:00 -4°C° 0 mm 3 mps 746 mmHg 71%
    23:00 -4°C° 0 mm 3 mps 747 mmHg 72%

    5 April, Sunday

    Time Temperature Precipitation Wind Pressure Humidity
    00:00 -5°C° 0 mm 3 mps 747 mmHg 71%
    01:00 -5°C° 0 mm 3 mps 748 mmHg 70%
    02:00 -5°C° 0 mm 3 mps 748 mmHg 69%
    03:00 -5°C° 0 mm 4 mps 749 mmHg 69%
    04:00 -7°C° 0 mm 4 mps 749 mmHg 69%
    05:00 -7°C° 0 mm 4 mps 750 mmHg 70%
    06:00 -5°C° 0 mm 4 mps 750 mmHg 68%
    07:00 -5°C° 0 mm 5 mps 751 mmHg 67%
    08:00 -5°C° 0 mm 5 mps 751 mmHg 66%
    09:00 -4°C° 0 mm 5 mps 752 mmHg 60%
    10:00 -2°C° 0 mm 5 mps 752 mmHg 55%
    11:00 -3°C° 0 mm 6 mps 752 mmHg 49%
    12:00 -3°C° 0.2 mm 6 mps 753 mmHg 48%
    13:00 -2°C° 0.2 mm 6 mps 753 mmHg 48%
    14:00 -2°C° 0.2 mm 6 mps 753 mmHg 47%
    15:00 -2°C° 0 mm 5 mps 753 mmHg 49%
    16:00 -2°C° 0 mm 4 mps 753 mmHg 51%
    17:00 -1°C° 0 mm 3 mps 753 mmHg 54%
    18:00 -2°C° 0 mm 3 mps 753 mmHg 59%
    19:00 -3°C° 0 mm 2 mps 753 mmHg 65%
    20:00 -3°C° 0 mm 2 mps 753 mmHg 71%
    21:00 -3°C° 0 mm 2 mps 752 mmHg 74%
    22:00 -3°C° 0 mm 2 mps 752 mmHg 78%
    23:00 -3°C° 0 mm 2 mps 751 mmHg 82%
    Show more